GW6288 Weather Reports


time (UTC)temp
F
wind
direction
speed
knots
gust
knots
rain 1hr
in
rain 24hr
in
rain mn
in
humidity
%
barometer
mb
20260506024727 53 284 2.6 2.6 0.00 0.00 0.00 62 1014.0
20260506024223 53 355 7.8 11.3 0.00 0.00 0.00 61 1013.6
20260506023719 54 21 4.3 5.2 0.00 0.00 0.00 60 1013.6
20260506023216 54 319 5.2 7.0 0.00 0.00 0.00 58 1013.3
20260506022713 55 348 7.0 7.0 0.00 0.00 0.00 56 1013.4
20260506022211 56 337 4.3 6.1 0.00 0.00 0.00 54 1013.3
20260506021709 57 263 2.6 5.2 0.00 0.00 0.00 52 1012.4
20260506021205 59 270 7.8 8.7 0.00 0.00 0.00 50 1012.7
20260506020702 59 192 0.0 0.0 0.00 0.00 0.00 49 1012.2
20260506020200 59 193 0.0 0.9 0.00 0.00 0.00 49 1012.1
20260506015657 59 191 1.7 1.7 0.00 0.00 0.00 48 1011.9
20260506015155 60 202 2.6 2.6 0.00 0.00 0.00 47 1011.5
20260506014652 60 199 3.5 3.5 0.00 0.00 0.00 47 1011.5
20260506014148 60 176 6.1 6.1 0.00 0.00 0.00 47 1011.4
20260506013646 60 213 4.3 6.1 0.00 0.00 0.00 47 1011.2
20260506013143 60 219 5.2 6.1 0.00 0.00 0.00 46 1011.0
20260506012639 61 206 3.5 3.5 0.00 0.00 0.00 45 1011.3
20260506012136 61 221 6.1 7.8 0.00 0.00 0.00 45 1011.4
20260506011634 61 222 6.1 7.0 0.00 0.00 0.00 44 1011.3
20260506011130 61 180 4.3 5.2 0.00 0.00 0.00 44 1011.2
20260506010628 61 186 0.0 0.9 0.00 0.00 0.00 43 1011.2
20260506010125 61 208 1.7 1.7 0.00 0.00 0.00 45 1011.0
20260506005621 62 190 1.7 2.6 0.00 0.00 0.00 43 1010.9
20260506005118 61 201 0.0 0.0 0.00 0.00 0.00 44 1011.2
20260506004615 62 213 2.6 2.6 0.00 0.00 0.00 45 1011.5
20260506004112 62 176 0.9 1.7 0.00 0.00 0.00 43 1011.4
20260506003608 62 214 0.9 1.7 0.00 0.00 0.00 42 1011.2
20260506003104 62 192 1.7 1.7 0.00 0.00 0.00 42 1011.3
20260506002600 62 214 5.2 6.1 0.00 0.00 0.00 44 1011.3
20260506002056 61 152 3.5 5.2 0.00 0.00 0.00 47 1011.3
20260506001552 62 191 0.9 0.9 0.00 0.00 0.00 46 1011.0
20260506001050 62 174 2.6 3.5 0.00 0.00 0.00 46 1010.9
20260506000547 62 182 3.5 5.2 0.00 0.00 0.00 46 1010.9
20260506000044 62 179 4.3 5.2 0.00 0.00 0.00 47 1010.9
20260505235542 62 171 2.6 2.6 0.00 0.00 0.00 47 1010.8
20260505235039 63 178 1.7 2.6 0.00 0.00 0.00 46 1011.2
20260505234536 63 179 1.7 1.7 0.00 0.00 0.00 44 1010.7
20260505234033 63 150 2.6 3.5 0.00 0.00 0.00 45 1011.2
20260505233530 62 189 0.0 0.0 0.00 0.00 0.00 47 1010.9
20260505233028 62 95 3.5 6.1 0.00 0.00 0.00 46 1010.9
20260505232525 63 114 1.7 2.6 0.00 0.00 0.00 47 1011.3
20260505232023 62 162 1.7 2.6 0.00 0.00 0.00 48 1011.0
20260505231519 62 191 6.1 7.0 0.00 0.00 0.00 48 1011.2
20260505231018 63 198 6.1 7.0 0.00 0.00 0.00 46 1011.0
20260505230515 62 73 1.7 2.6 0.00 0.00 0.00 46 1011.5
20260505230012 64 180 1.7 2.6 0.00 0.00 0.00 43 1011.4
20260505225509 62 171 0.9 0.9 0.00 0.00 0.00 43 1011.4
20260505225004 63 328 4.3 5.2 0.00 0.00 0.00 42 1011.2
20260505224502 64 204 1.7 1.7 0.00 0.00 0.00 41 1011.4
20260505223959 64 192 1.7 1.7 0.00 0.00 0.00 40 1011.4
20260505223455 61 213 0.0 0.0 0.00 0.00 0.00 45 1011.5
20260505222952 61 185 7.0 8.7 0.00 0.00 0.00 44 1011.7
20260505222448 60 154 3.5 5.2 0.00 0.00 0.00 54 1011.9
20260505221944 59 164 7.8 9.6 0.00 0.00 0.00 53 1012.1
20260505221442 59 171 5.2 7.8 0.00 0.00 0.00 52 1012.1
20260505220939 60 189 6.1 7.0 0.00 0.00 0.00 53 1012.1
20260505220436 59 211 5.2 7.0 0.00 0.00 0.00 52 1012.1
20260505215933 59 202 7.8 13.0 0.00 0.00 0.00 58 1012.4
20260505215431 60 231 10.4 13.0 0.00 0.00 0.00 51 1012.8
20260505214929 60 238 7.0 8.7 0.00 0.00 0.00 54 1012.4
20260505214426 60 191 0.0 0.0 0.00 0.00 0.00 52 1012.7
20260505213923 61 235 0.9 1.7 0.00 0.00 0.00 51 1012.4
20260505213421 62 198 0.9 0.9 0.00 0.00 0.00 49 1012.6
20260505212917 64 199 0.9 1.7 0.00 0.00 0.00 44 1012.4
20260505212414 63 136 0.0 0.0 0.00 0.00 0.00 42 1012.4
20260505211910 63 195 0.0 0.0 0.00 0.00 0.00 42 1012.3
20260505211408 64 49 2.6 2.6 0.00 0.00 0.00 42 1012.6
20260505210904 64 254 0.9 0.9 0.00 0.00 0.00 41 1012.4
20260505210401 62 203 1.7 1.7 0.00 0.00 0.00 43 1012.6
20260505205858 62 185 3.5 3.5 0.00 0.00 0.00 43 1012.6
20260505205356 62 192 4.3 5.2 0.00 0.00 0.00 43 1012.7
20260505204853 63 45 1.7 2.6 0.00 0.00 0.00 41 1012.6
20260505204351 64 198 1.7 1.7 0.00 0.00 0.00 41 1012.7
20260505203848 66 320 2.6 2.6 0.00 0.00 0.00 39 1012.8
20260505203344 63 220 1.7 1.7 0.00 0.00 0.00 43 1012.8
20260505202841 63 66 1.7 1.7 0.00 0.00 0.00 43 1013.0
20260505202337 63 135 1.7 2.6 0.00 0.00 0.00 43 1013.0
20260505201834 60 236 0.9 1.7 0.00 0.00 0.00 48 1012.9
20260505201331 63 290 1.7 2.6 0.00 0.00 0.00 46 1013.0
20260505200829 61 355 2.6 2.6 0.00 0.00 0.00 47 1012.8
20260505200326 61 142 0.0 0.0 0.00 0.00 0.00 48 1012.8
20260505195821 60 9 4.3 5.2 0.00 0.00 0.00 49 1013.3
20260505195319 59 225 0.9 0.9 0.00 0.00 0.00 50 1013.5
20260505194816 59 200 0.9 0.9 0.00 0.00 0.00 50 1013.5
20260505194313 60 169 0.0 0.0 0.00 0.00 0.00 48 1013.5
20260505193808 61 221 1.7 2.6 0.00 0.00 0.00 48 1013.4
20260505193306 60 194 1.7 2.6 0.00 0.00 0.00 51 1013.6
20260505192804 62 215 0.9 1.7 0.00 0.00 0.00 47 1013.4
20260505192305 59 229 1.7 2.6 0.00 0.00 0.00 53 1013.4
20260505191759 59 206 6.1 6.1 0.00 0.00 0.00 51 1013.7
20260505191258 59 204 4.3 6.1 0.00 0.00 0.00 56 1013.7
20260505190754 58 207 6.1 7.0 0.00 0.00 0.00 59 1013.6
20260505190249 58 195 7.0 8.7 0.00 0.00 0.00 60 1013.7
20260505185746 57 182 7.0 8.7 0.00 0.00 0.00 60 1013.6
20260505185242 57 146 8.7 11.3 0.00 0.00 0.00 61 1013.5
20260505184738 57 192 8.7 11.3 0.00 0.00 0.00 62 1013.6
20260505184236 58 140 7.0 7.8 0.00 0.00 0.00 55 1013.7
20260505183732 60 180 9.6 13.0 0.00 0.00 0.00 48 1013.6
20260505183230 60 214 7.0 8.7 0.00 0.00 0.00 45 1013.7
20260505182726 60 214 5.2 7.0 0.00 0.00 0.00 46 1013.4
20260505182223 61 192 8.7 9.6 0.00 0.00 0.00 46 1013.6
20260505181719 60 145 5.2 6.1 0.00 0.00 0.00 45 1013.4
20260505181217 61 192 0.9 1.7 0.00 0.00 0.00 42 1013.7
20260505180713 60 217 7.0 7.8 0.00 0.00 0.00 43 1013.5
20260505180210 62 197 5.2 7.0 0.00 0.00 0.00 42 1013.6
20260505175706 61 215 0.9 0.9 0.00 0.00 0.00 41 1013.3
20260505175203 63 166 1.7 1.7 0.00 0.00 0.00 38 1013.5
20260505174659 62 207 2.6 2.6 0.00 0.00 0.00 39 1013.5
20260505174155 63 169 1.7 2.6 0.00 0.00 0.00 39 1013.6
20260505173652 61 263 5.2 7.0 0.00 0.00 0.00 40 1013.5
20260505173149 62 157 3.5 5.2 0.00 0.00 0.00 40 1013.5
20260505172646 61 291 1.7 2.6 0.00 0.00 0.00 41 1013.6
20260505172143 62 194 0.9 0.9 0.00 0.00 0.00 40 1013.4
20260505171643 61 185 0.9 0.9 0.00 0.00 0.00 40 1013.5
20260505171140 61 177 0.9 1.7 0.00 0.00 0.00 40 1013.7
20260505170637 60 186 0.0 0.0 0.00 0.00 0.00 42 1013.8
20260505170134 61 263 3.5 5.2 0.00 0.00 0.00 42 1013.7
20260505165629 60 205 0.9 1.7 0.00 0.00 0.00 41 1013.8
20260505165126 59 283 1.7 2.6 0.00 0.00 0.00 43 1013.8
20260505164621 58 334 2.6 2.6 0.00 0.00 0.00 44 1013.7
20260505164119 59 253 2.6 2.6 0.00 0.00 0.00 43 1013.7
20260505163617 58 228 0.9 0.9 0.00 0.00 0.00 44 1013.8
20260505163114 58 240 2.6 5.2 0.00 0.00 0.00 45 1013.7
20260505162612 57 33 2.6 2.6 0.00 0.00 0.00 46 1013.7
20260505162109 56 108 0.9 0.9 0.00 0.00 0.00 48 1014.0
20260505161606 56 277 2.6 3.5 0.00 0.00 0.00 49 1014.2
20260505161103 55 189 1.7 1.7 0.00 0.00 0.00 51 1014.3
20260505160601 55 27 4.3 6.1 0.00 0.00 0.00 52 1014.3
20260505153038 55 195 2.6 5.2 0.00 0.00 0.00 55 1014.5
20260505152534 56 10 3.5 3.5 0.00 0.00 0.00 56 1015.0
20260505152030 56 203 2.6 2.6 0.00 0.00 0.00 57 1014.8
20260505151530 55 326 1.7 2.6 0.00 0.00 0.00 58 1014.8
20260505151028 55 2 1.7 2.6 0.00 0.00 0.00 57 1014.7
20260505150524 55 175 2.6 2.6 0.00 0.00 0.00 58 1014.7
20260505140449 56 71 1.7 1.7 0.00 0.00 0.00 53 1014.8
20260505124903 59 192 0.0 0.9 0.00 0.00 0.00 40 1013.4
20260505124400 59 189 0.0 0.0 0.00 0.00 0.00 39 1013.3
20260505123856 59 205 0.0 0.9 0.00 0.00 0.00 39 1013.4
20260505123353 59 210 1.7 1.7 0.00 0.00 0.00 38 1013.6
20260505122848 59 186 0.0 0.0 0.00 0.00 0.00 38 1013.6
20260505122346 59 185 0.0 0.9 0.00 0.00 0.00 38 1013.6
20260505121843 59 216 3.5 3.5 0.00 0.00 0.00 37 1013.6
20260505121340 59 222 5.2 6.1 0.00 0.00 0.00 37 1013.7
20260505120836 59 211 2.6 2.6 0.00 0.00 0.00 37 1013.6
20260505120332 59 220 1.7 2.6 0.00 0.00 0.00 37 1013.6
20260505115831 59 193 0.0 0.0 0.00 0.00 0.00 37 1013.4
20260505115328 59 221 1.7 1.7 0.00 0.00 0.00 36 1013.5
20260505114826 58 266 0.9 1.7 0.00 0.00 0.00 37 1013.5
20260505114322 58 183 0.0 0.0 0.00 0.00 0.00 37 1013.3
20260505113819 59 174 0.0 0.0 0.00 0.00 0.00 36 1013.3
20260505113315 59 203 0.0 0.9 0.00 0.00 0.00 35 1013.3
20260505112811 59 178 0.0 0.0 0.00 0.00 0.00 36 1013.5
20260505112308 59 164 0.0 0.0 0.00 0.00 0.00 35 1013.3
20260505111804 59 159 0.0 0.9 0.00 0.00 0.00 34 1013.3
20260505111300 59 182 0.0 0.0 0.00 0.00 0.00 34 1013.4
20260505110755 59 184 0.0 0.0 0.00 0.00 0.00 34 1013.1
20260505110254 59 196 0.9 0.9 0.00 0.00 0.00 34 1013.5
20260505101727 60 195 1.7 1.7 0.00 0.00 0.00 32 1013.4
20260505101223 60 191 0.0 0.0 0.00 0.00 0.00 33 1013.4
20260505100720 60 191 0.0 0.0 0.00 0.00 0.00 32 1013.1
20260505100217 61 189 0.0 0.0 0.00 0.00 0.00 32 1013.1
20260505095712 61 198 0.0 0.0 0.00 0.00 0.00 32 1013.0
20260505095211 60 206 1.7 2.6 0.00 0.00 0.00 31 1012.9
20260505094706 60 204 0.0 0.9 0.00 0.00 0.00 32 1013.1
20260505094202 61 193 0.0 0.0 0.00 0.00 0.00 32 1013.3
20260505093659 61 187 0.0 0.0 0.00 0.00 0.00 31 1013.1
20260505093156 61 197 0.0 0.0 0.00 0.00 0.00 32 1013.0
20260505092653 61 198 0.0 0.0 0.00 0.00 0.00 31 1013.0
20260505092152 61 183 0.0 0.0 0.00 0.00 0.00 31 1013.0
20260505091648 62 200 1.7 2.6 0.00 0.00 0.00 30 1013.3
20260505091146 61 198 0.9 0.9 0.00 0.00 0.00 30 1013.3
20260505090644 61 195 0.0 0.0 0.00 0.00 0.00 31 1013.4
20260505090142 61 193 0.0 0.0 0.00 0.00 0.00 32 1013.4
20260505085639 61 181 0.0 0.0 0.00 0.00 0.00 32 1013.7
20260505085137 62 151 0.0 0.0 0.00 0.00 0.00 31 1013.5
20260505084634 62 33 0.9 1.7 0.00 0.00 0.00 31 1013.6
20260505084133 62 46 1.7 1.7 0.00 0.00 0.00 30 1013.8
20260505083630 62 160 0.0 0.0 0.00 0.00 0.00 31 1013.5
20260505083126 62 203 0.9 0.9 0.00 0.00 0.00 31 1014.0
20260505082622 62 195 0.0 0.9 0.00 0.00 0.00 30 1013.8
20260505082119 62 231 2.6 2.6 0.00 0.00 0.00 30 1013.7
20260505081615 62 212 0.0 0.0 0.00 0.00 0.00 30 1013.8
20260505081113 63 229 1.7 2.6 0.00 0.00 0.00 30 1013.8
20260505080609 62 208 0.9 0.9 0.00 0.00 0.00 30 1013.8
20260505080106 63 188 1.7 1.7 0.00 0.00 0.00 30 1014.0
20260505075601 63 202 1.7 3.5 0.00 0.00 0.00 30 1014.0
20260505075059 63 190 3.5 3.5 0.00 0.00 0.00 30 1013.8
20260505074555 63 235 1.7 1.7 0.00 0.00 0.00 30 1013.8
20260505074053 63 202 0.9 0.9 0.00 0.00 0.00 30 1014.1
20260505073550 64 303 0.0 0.9 0.00 0.00 0.00 29 1014.2
20260505073049 64 269 3.5 5.2 0.00 0.00 0.00 29 1014.0
20260505072544 64 240 6.1 7.8 0.00 0.00 0.00 29 1013.8
20260505072040 64 214 7.0 8.7 0.00 0.00 0.00 29 1013.7
20260505071536 64 295 2.6 3.5 0.00 0.00 0.00 29 1013.4
20260505071034 64 255 6.1 9.6 0.00 0.00 0.00 29 1013.4
20260505070531 65 244 7.0 8.7 0.00 0.00 0.00 28 1013.1
20260505070027 65 262 3.5 5.2 0.00 0.00 0.00 28 1013.3
20260505065523 65 190 5.2 7.8 0.00 0.00 0.00 28 1013.4
20260505065020 65 249 5.2 6.1 0.00 0.00 0.00 27 1013.1
20260505064517 65 205 6.1 7.8 0.00 0.00 0.00 27 1013.1
20260505064015 65 280 7.8 11.3 0.00 0.00 0.00 27 1013.1
20260505063512 65 194 5.2 6.1 0.00 0.00 0.00 26 1013.0
20260505063008 65 228 1.7 2.6 0.00 0.00 0.00 26 1013.0
20260505062505 65 211 1.7 1.7 0.00 0.00 0.00 26 1013.3
20260505062002 66 279 1.7 2.6 0.00 0.00 0.00 26 1013.0
20260505061500 66 228 3.5 5.2 0.00 0.00 0.00 25 1013.3
20260505060957 66 220 3.5 3.5 0.00 0.00 0.00 25 1013.4
20260505060454 66 219 5.2 7.0 0.00 0.00 0.00 25 1013.1
20260505055950 66 273 5.2 6.1 0.00 0.00 0.00 24 1013.1
20260505055446 66 204 1.7 1.7 0.00 0.00 0.00 24 1013.1
20260505054943 66 101 2.6 2.6 0.00 0.00 0.00 24 1013.3
20260505054441 66 238 1.7 1.7 0.00 0.00 0.00 24 1013.1
20260505053939 67 195 2.6 2.6 0.00 0.00 0.00 24 1013.1
20260505053435 67 212 2.6 5.2 0.00 0.00 0.00 23 1013.1
20260505052932 67 220 2.6 3.5 0.00 0.00 0.00 23 1013.1
20260505052429 67 226 1.7 2.6 0.00 0.00 0.00 24 1012.9
20260505051926 67 199 2.6 3.5 0.00 0.00 0.00 23 1012.9
20260505051423 67 204 0.9 1.7 0.00 0.00 0.00 23 1013.0
20260505050921 67 215 0.9 1.7 0.00 0.00 0.00 24 1013.0
20260505050420 68 198 3.5 5.2 0.00 0.00 0.00 23 1012.7
20260505041347 69 193 0.0 0.0 0.00 0.00 0.00 23 1012.7
20260505040844 68 206 1.7 1.7 0.00 0.00 0.00 23 1012.9
20260505040342 69 194 0.0 0.0 0.00 0.00 0.00 23 1012.9
20260505035838 69 230 0.0 0.9 0.00 0.00 0.00 23 1012.7
20260505035334 69 177 0.0 0.0 0.00 0.00 0.00 23 1012.7
20260505034832 69 194 0.0 0.0 0.00 0.00 0.00 23 1012.8
20260505034328 69 273 1.7 2.6 0.00 0.00 0.00 22 1012.4
20260505033825 69 200 0.9 0.9 0.00 0.00 0.00 22 1012.4
20260505033322 69 209 0.9 0.9 0.00 0.00 0.00 22 1012.4
20260505032820 70 194 0.0 0.9 0.00 0.00 0.00 22 1012.4
20260505032316 70 193 1.7 2.6 0.00 0.00 0.00 22 1012.1
20260505031814 70 211 0.0 0.9 0.00 0.00 0.00 22 1012.2
20260505031310 70 245 1.7 1.7 0.00 0.00 0.00 21 1012.2
20260505030807 70 190 0.9 1.7 0.00 0.00 0.00 21 1012.3
20260505030303 71 199 1.7 1.7 0.00 0.00 0.00 21 1012.0
20260505025758 70 191 0.9 0.9 0.00 0.00 0.00 21 1012.1
20260505025257 71 196 0.0 0.0 0.00 0.00 0.00 21 1011.6